• In Deutschland
  • Länderverzeichnis
  • Für 7 Tage
  • Wassertemperatur
  • Satellitenkarten
  • Wetterkarte
  • Widgets
  • user-avatar
    Anmelden

    Stündliche Wetter Quito

    Heute, 23 November, Donnerstag

    Zeit Temperatur Niederschläge Wind Luftdruck Luftfeuchtigkeit
    00:00 +16°C° 0,5 mm 1 m/S 621 mmHg 94%
    01:00 +16°C° 0,5 mm 1 m/S 621 mmHg 94%
    02:00 +16°C° 0 mm 1 m/S 621 mmHg 94%
    03:00 +16°C° 0 mm 1 m/S 621 mmHg 94%
    04:00 +16°C° 0 mm 1 m/S 620 mmHg 94%
    05:00 +18°C° 0 mm 1 m/S 621 mmHg 92%
    06:00 +19°C° 0 mm 1 m/S 622 mmHg 89%
    07:00 +20°C° 0 mm 1 m/S 622 mmHg 87%
    08:00 +21°C° 0,8 mm 1 m/S 623 mmHg 81%
    09:00 +23°C° 0,8 mm 1 m/S 623 mmHg 75%
    10:00 +25°C° 0,8 mm 2 m/S 623 mmHg 69%
    11:00 +25°C° 1,4 mm 2 m/S 623 mmHg 66%
    12:00 +26°C° 1,4 mm 1 m/S 623 mmHg 62%
    13:00 +27°C° 1,4 mm 1 m/S 622 mmHg 59%
    14:00 +26°C° 1,2 mm 1 m/S 622 mmHg 63%
    15:00 +25°C° 1,2 mm 1 m/S 621 mmHg 67%
    16:00 +24°C° 1,2 mm 1 m/S 621 mmHg 71%
    17:00 +23°C° 1,9 mm 1 m/S 621 mmHg 76%
    18:00 +20°C° 1,9 mm 2 m/S 621 mmHg 82%
    19:00 +18°C° 1,9 mm 2 m/S 621 mmHg 88%
    20:00 +19°C° 1,4 mm 1 m/S 621 mmHg 89%
    21:00 +19°C° 1,4 mm 1 m/S 622 mmHg 91%
    22:00 +18°C° 1,4 mm 1 m/S 622 mmHg 92%
    23:00 +18°C° 1,7 mm 1 m/S 622 mmHg 93%

    Morgen, 24 November, Freitag

    Zeit Temperatur Niederschläge Wind Luftdruck Luftfeuchtigkeit
    00:00 +18°C° 1,7 mm 1 m/S 622 mmHg 94%
    01:00 +18°C° 1,7 mm 1 m/S 622 mmHg 94%
    02:00 +18°C° 1,1 mm 1 m/S 621 mmHg 95%
    03:00 +18°C° 1,1 mm 1 m/S 621 mmHg 95%
    04:00 +18°C° 1,1 mm 1 m/S 621 mmHg 95%
    05:00 +18°C° 0,6 mm 1 m/S 621 mmHg 95%
    06:00 +18°C° 0,6 mm 1 m/S 622 mmHg 95%
    07:00 +18°C° 0,6 mm 1 m/S 622 mmHg 95%
    08:00 +19°C° 0,7 mm 1 m/S 623 mmHg 92%
    09:00 +20°C° 0,7 mm 1 m/S 623 mmHg 88%
    10:00 +20°C° 0,7 mm 1 m/S 623 mmHg 85%
    11:00 +21°C° 0,5 mm 1 m/S 623 mmHg 81%
    12:00 +21°C° 0,5 mm 2 m/S 623 mmHg 76%
    13:00 +23°C° 0,5 mm 2 m/S 623 mmHg 72%
    14:00 +23°C° 0,6 mm 2 m/S 622 mmHg 75%
    15:00 +23°C° 0,6 mm 2 m/S 622 mmHg 77%
    16:00 +21°C° 0,6 mm 2 m/S 621 mmHg 80%
    17:00 +20°C° 0,6 mm 2 m/S 621 mmHg 84%
    18:00 +19°C° 0,6 mm 2 m/S 621 mmHg 88%
    19:00 +19°C° 0,6 mm 1 m/S 621 mmHg 92%
    20:00 +18°C° 0,1 mm 1 m/S 622 mmHg 92%
    21:00 +18°C° 0,1 mm 1 m/S 622 mmHg 93%
    22:00 +18°C° 0,1 mm 1 m/S 622 mmHg 94%
    23:00 +16°C° 0,2 mm 1 m/S 622 mmHg 94%

    übermorgen, 25 November, Samstag

    Zeit Temperatur Niederschläge Wind Luftdruck Luftfeuchtigkeit
    00:00 +16°C° 0,2 mm 1 m/S 621 mmHg 95%
    01:00 +16°C° 0,2 mm 1 m/S 621 mmHg 96%
    02:00 +16°C° 0,3 mm 1 m/S 621 mmHg 96%
    03:00 +16°C° 0,3 mm 1 m/S 621 mmHg 96%
    04:00 +16°C° 0,3 mm 1 m/S 621 mmHg 97%
    05:00 +16°C° 0,3 mm 0 m/S 621 mmHg 95%
    06:00 +16°C° 0,3 mm 0 m/S 622 mmHg 94%
    07:00 +17°C° 0,3 mm 0 m/S 622 mmHg 92%
    08:00 +18°C° 0,7 mm 0 m/S 623 mmHg 88%
    09:00 +21°C° 0,7 mm 1 m/S 623 mmHg 84%
    10:00 +22°C° 0,7 mm 1 m/S 624 mmHg 80%
    11:00 +23°C° 0,6 mm 1 m/S 623 mmHg 77%
    12:00 +24°C° 0,6 mm 1 m/S 623 mmHg 73%
    13:00 +24°C° 0,6 mm 1 m/S 622 mmHg 70%
    14:00 +24°C° 0,8 mm 1 m/S 622 mmHg 73%
    15:00 +23°C° 0,8 mm 1 m/S 621 mmHg 76%
    16:00 +23°C° 0,8 mm 1 m/S 621 mmHg 78%
    17:00 +21°C° 0,7 mm 1 m/S 621 mmHg 82%
    18:00 +18°C° 0,7 mm 0 m/S 621 mmHg 85%
    19:00 +17°C° 0,7 mm 0 m/S 621 mmHg 88%
    20:00 +17°C° 0 mm 0 m/S 621 mmHg 89%
    21:00 +16°C° 0 mm 0 m/S 622 mmHg 89%
    22:00 +16°C° 0 mm 0 m/S 622 mmHg 90%
    23:00 +16°C° 0,3 mm 0 m/S 622 mmHg 91%

    26 November, Sonntag

    Zeit Temperatur Niederschläge Wind Luftdruck Luftfeuchtigkeit
    00:00 +18°C° 0,3 mm 1 m/S 621 mmHg 93%
    01:00 +16°C° 0,3 mm 1 m/S 621 mmHg 94%
    02:00 +16°C° 0,3 mm 1 m/S 621 mmHg 94%
    03:00 +16°C° 0,3 mm 1 m/S 621 mmHg 95%
    04:00 +16°C° 0,3 mm 1 m/S 621 mmHg 95%
    05:00 +18°C° 0,1 mm 1 m/S 621 mmHg 94%
    06:00 +18°C° 0,1 mm 1 m/S 622 mmHg 93%
    07:00 +19°C° 0,1 mm 1 m/S 623 mmHg 92%
    08:00 +20°C° 0,8 mm 1 m/S 623 mmHg 88%
    09:00 +21°C° 0,8 mm 1 m/S 624 mmHg 83%
    10:00 +23°C° 0,8 mm 1 m/S 624 mmHg 79%
    11:00 +23°C° 1,5 mm 1 m/S 624 mmHg 78%
    12:00 +23°C° 1,5 mm 1 m/S 623 mmHg 77%
    13:00 +24°C° 1,5 mm 1 m/S 623 mmHg 76%
    14:00 +23°C° 1,2 mm 1 m/S 623 mmHg 78%
    15:00 +23°C° 1,2 mm 1 m/S 622 mmHg 80%
    16:00 +21°C° 1,2 mm 2 m/S 622 mmHg 82%
    17:00 +20°C° 1,2 mm 2 m/S 622 mmHg 86%
    18:00 +19°C° 1,2 mm 2 m/S 622 mmHg 90%
    19:00 +17°C° 1,2 mm 2 m/S 623 mmHg 94%
    20:00 +17°C° 0,2 mm 2 m/S 623 mmHg 94%
    21:00 +17°C° 0,2 mm 2 m/S 623 mmHg 95%
    22:00 +16°C° 0,2 mm 3 m/S 623 mmHg 96%
    23:00 +16°C° 0 mm 3 m/S 623 mmHg 96%

    27 November, Montag

    Zeit Temperatur Niederschläge Wind Luftdruck Luftfeuchtigkeit
    00:00 +16°C° 0 mm 3 m/S 622 mmHg 96%
    01:00 +16°C° 0 mm 3 m/S 622 mmHg 96%
    02:00 +16°C° 0 mm 3 m/S 622 mmHg 96%
    03:00 +15°C° 0 mm 2 m/S 622 mmHg 96%
    04:00 +15°C° 0 mm 2 m/S 621 mmHg 96%
    05:00 +15°C° 0 mm 2 m/S 622 mmHg 95%
    06:00 +16°C° 0 mm 2 m/S 623 mmHg 93%
    07:00 +16°C° 0 mm 1 m/S 623 mmHg 91%
    08:00 +18°C° 0 mm 2 m/S 624 mmHg 84%
    09:00 +19°C° 0 mm 2 m/S 624 mmHg 78%
    10:00 +21°C° 0 mm 2 m/S 625 mmHg 71%
    11:00 +21°C° 0 mm 2 m/S 624 mmHg 69%
    12:00 +23°C° 0 mm 2 m/S 624 mmHg 67%
    13:00 +24°C° 0 mm 2 m/S 623 mmHg 65%
    14:00 +23°C° 0,1 mm 1 m/S 623 mmHg 67%
    15:00 +23°C° 0,1 mm 1 m/S 622 mmHg 69%
    16:00 +23°C° 0,1 mm 1 m/S 622 mmHg 71%
    17:00 +21°C° 0 mm 1 m/S 622 mmHg 76%
    18:00 +20°C° 0 mm 1 m/S 622 mmHg 81%
    19:00 +19°C° 0 mm 1 m/S 623 mmHg 86%
    20:00 +18°C° 0 mm 1 m/S 623 mmHg 87%
    21:00 +18°C° 0 mm 1 m/S 623 mmHg 88%
    22:00 +18°C° 0 mm 1 m/S 623 mmHg 89%
    23:00 +16°C° 0 mm 1 m/S 622 mmHg 90%

    28 November, Dienstag

    Zeit Temperatur Niederschläge Wind Luftdruck Luftfeuchtigkeit
    00:00 +16°C° 0 mm 1 m/S 622 mmHg 90%
    01:00 +16°C° 0 mm 1 m/S 621 mmHg 91%
    02:00 +16°C° 0 mm 1 m/S 621 mmHg 92%
    03:00 +15°C° 0 mm 1 m/S 621 mmHg 92%
    04:00 +15°C° 0 mm 1 m/S 621 mmHg 92%
    05:00 +16°C° 0 mm 1 m/S 622 mmHg 90%
    06:00 +17°C° 0 mm 2 m/S 622 mmHg 87%
    07:00 +18°C° 0 mm 2 m/S 623 mmHg 85%
    08:00 +21°C° 0,1 mm 1 m/S 624 mmHg 77%
    09:00 +23°C° 0,1 mm 1 m/S 624 mmHg 70%
    10:00 +25°C° 0,1 mm 1 m/S 625 mmHg 62%
    11:00 +26°C° 0,9 mm 1 m/S 624 mmHg 61%
    12:00 +27°C° 0,9 mm 1 m/S 624 mmHg 60%
    13:00 +27°C° 0,9 mm 1 m/S 624 mmHg 58%
    14:00 +26°C° 1,2 mm 1 m/S 623 mmHg 63%
    15:00 +25°C° 1,2 mm 1 m/S 622 mmHg 67%
    16:00 +24°C° 1,2 mm 1 m/S 622 mmHg 72%
    17:00 +22°C° 0,7 mm 1 m/S 622 mmHg 77%
    18:00 +20°C° 0,7 mm 2 m/S 622 mmHg 83%
    19:00 +18°C° 0,7 mm 2 m/S 621 mmHg 88%
    20:00 +19°C° 0,8 mm 1 m/S 622 mmHg 90%
    21:00 +18°C° 0,8 mm 1 m/S 622 mmHg 91%
    22:00 +16°C° 0,8 mm 0 m/S 622 mmHg 92%
    23:00 +16°C° 0,4 mm 0 m/S 622 mmHg 92%
    Mehr zeigen